GW2967 Weather Reports


Display with metric or nautical units.
time (UTC)temp
F
wind
direction
speed
MPH
gust
MPH
rain 1hr
in
rain 24hr
in
rain mn
in
humidity
%
barometer
mb
20260506221531 63 0 0.0 0.0 0.00 0.51 0.51 64 1007.0
20260506220030 63 0 0.0 2.0 0.00 0.51 0.51 64 1006.9
20260506214538 63 0 0.0 1.0 0.00 0.51 0.51 64 1006.8
20260506213029 63 0 0.0 2.0 0.00 0.51 0.51 64 1006.6
20260506211529 62 0 0.0 0.0 0.00 0.51 0.51 64 1006.4
20260506210030 62 131 0.0 1.0 0.00 0.51 0.51 64 1006.4
20260506204529 62 0 0.0 0.0 0.00 0.51 0.51 64 1006.4
20260506203033 61 0 0.0 0.0 0.00 0.51 0.51 64 1006.4
20260506201529 62 0 0.0 1.0 0.00 0.51 0.51 65 1006.2
20260506200027 61 0 0.0 2.0 0.00 0.51 0.51 66 1006.4
20260506193027 60 243 0.0 3.0 0.01 0.51 0.51 67 1006.5
20260506191528 60 0 0.0 2.0 0.02 0.51 0.51 67 1006.7
20260506190028 60 242 0.0 3.0 0.04 0.51 0.51 67 1006.7
20260506184543 60 188 0.0 2.0 0.04 0.50 0.50 67 1006.7
20260506183038 60 239 0.0 5.0 0.06 0.50 0.50 67 1006.9
20260506181537 60 0 0.0 1.0 0.09 0.49 0.49 67 1007.0
20260506180036 60 138 0.0 1.0 0.08 0.47 0.47 67 1007.2
20260506174529 60 248 0.0 2.0 0.10 0.46 0.46 67 1007.2
20260506173039 59 212 0.0 4.0 0.11 0.43 0.43 68 1007.1
20260506171528 59 0 0.0 3.0 0.08 0.40 0.40 67 1007.2
20260506170028 59 210 0.0 1.0 0.08 0.39 0.39 67 1007.4
20260506164535 59 0 0.0 3.0 0.06 0.36 0.36 67 1007.3
20260506163030 59 0 0.0 3.0 0.06 0.32 0.32 66 1007.6
20260506161528 59 0 0.0 1.0 0.12 0.32 0.32 66 1007.6
20260506160032 59 0 0.0 1.0 0.14 0.31 0.31 66 1007.6
20260506154532 59 0 0.0 3.0 0.14 0.29 0.29 66 1007.6
20260506153027 59 217 0.0 2.0 0.13 0.26 0.26 66 1007.7
20260506151528 59 0 0.0 2.0 0.08 0.20 0.20 66 1008.3
20260506150031 59 0 0.0 2.0 0.07 0.17 0.17 65 1007.9
20260506144529 59 0 0.0 2.0 0.06 0.15 0.15 65 1007.8
20260506143032 59 53 0.0 4.0 0.06 0.13 0.13 65 1007.8
20260506141532 60 0 0.0 0.0 0.07 0.12 0.12 66 1008.1
20260506140029 60 0 0.0 0.0 0.07 0.10 0.10 66 1008.3
20260506134531 60 0 0.0 1.0 0.07 0.09 0.09 66 1008.1
20260506133028 60 0 0.0 0.0 0.06 0.07 0.07 66 1008.5
20260506131534 60 0 0.0 0.0 0.04 0.05 0.05 66 1008.4
20260506130028 60 0 0.0 1.0 0.02 0.03 0.03 67 1008.7
20260506124529 60 0 0.0 0.0 0.02 0.02 0.02 68 1008.5
20260506123030 60 0 0.0 0.0 0.01 0.01 0.01 69 1008.4
20260506121530 60 0 0.0 0.0 0.01 0.01 0.01 70 1008.3
20260506120030 60 0 0.0 1.0 0.01 0.01 0.01 71 1008.2
20260506114531 59 0 0.0 1.0 0.00 0.00 0.00 71 1008.1
20260506113037 60 0 0.0 0.0 0.00 0.00 0.00 68 1008.2
20260506111532 60 0 0.0 0.0 0.00 0.00 0.00 66 1008.3
20260506110031 60 0 0.0 1.0 0.00 0.00 0.00 64 1008.0
20260506104533 60 0 0.0 0.0 0.00 0.00 0.00 64 1007.9
20260506103029 60 0 0.0 2.0 0.00 0.00 0.00 63 1007.5
20260506101528 59 0 0.0 0.0 0.00 0.00 0.00 64 1007.6
20260506100028 59 0 0.0 0.0 0.00 0.00 0.00 62 1007.7
20260506094530 59 0 0.0 0.0 0.00 0.00 0.00 62 1007.8
20260506093029 59 0 0.0 1.0 0.00 0.00 0.00 62 1007.8
20260506091530 59 0 0.0 0.0 0.00 0.00 0.00 61 1007.8
20260506090032 59 0 0.0 0.0 0.00 0.00 0.00 61 1007.9
20260506084530 59 0 0.0 0.0 0.00 0.02 0.00 60 1007.8
20260506083031 59 0 0.0 0.0 0.00 0.02 0.00 60 1008.0
20260506081530 59 0 0.0 0.0 0.00 0.02 0.00 59 1007.9
20260506073030 59 0 0.0 0.0 0.00 0.02 0.00 57 1008.0
20260506071530 59 0 0.0 0.0 0.00 0.02 0.00 56 1008.2
20260506061528 60 0 0.0 1.0 0.00 0.02 0.00 55 1008.6
20260506044531 59 0 0.0 1.0 0.00 0.02 0.00 56 1009.1
20260506043027 59 0 0.0 0.0 0.00 0.02 0.00 55 1009.1
20260506041530 58 0 0.0 0.0 0.00 0.02 0.00 55 1009.1
20260506040030 59 0 0.0 0.0 0.00 0.02 0.00 54 1009.3
20260506034532 59 0 0.0 0.0 0.00 0.02 0.02 54 1009.1
20260506033028 60 0 0.0 0.0 0.00 0.02 0.02 54 1009.1
20260506031530 60 0 0.0 0.0 0.00 0.02 0.02 52 1009.1
20260506030038 61 0 0.0 0.0 0.00 0.02 0.02 51 1009.1
20260506024553 61 0 0.0 0.0 0.00 0.02 0.02 50 1009.1
20260506023031 62 0 0.0 1.0 0.00 0.02 0.02 49 1009.1
20260506021532 62 0 0.0 1.0 0.00 0.02 0.02 50 1009.1
20260506020028 63 0 0.0 0.0 0.00 0.02 0.02 49 1008.9
20260506014527 64 0 0.0 0.0 0.00 0.02 0.02 46 1008.8
20260506013039 65 0 0.0 0.0 0.00 0.02 0.02 46 1008.7
20260506011531 66 0 0.0 0.0 0.00 0.02 0.02 45 1008.6
20260506010031 67 0 0.0 0.0 0.00 0.02 0.02 43 1008.5
20260506004531 68 0 0.0 0.0 0.00 0.02 0.02 41 1008.0
20260506003034 70 0 0.0 0.0 0.00 0.02 0.02 39 1008.0
20260506001536 72 0 0.0 3.0 0.00 0.02 0.02 37 1007.8
20260506000032 73 0 0.0 3.0 0.00 0.02 0.02 34 1007.8
20260505234535 74 0 1.0 3.0 0.00 0.02 0.02 33 1007.7
20260505233028 75 0 1.0 7.0 0.00 0.02 0.02 32 1007.6
20260505231532 75 0 0.0 6.0 0.00 0.02 0.02 30 1007.6
20260505230048 76 210 1.0 5.0 0.00 0.02 0.02 28 1007.4
20260505224530 76 237 1.0 10.0 0.00 0.02 0.02 26 1007.3
20260505223030 77 269 1.0 9.0 0.00 0.02 0.02 27 1007.2